Location: Cincinnati Observatory Center
(39.1389°N, 84.4225°W)
Time: 13:05:36
(UTC-05:00)

Hubble Space Telescope - Visible Passes

Search period start: 01 March 2017 00:00
Search period end: 11 March 2017 00:00
Orbit: 538 x 542 km, 28.5° (Epoch: 01 March)

Date Brightness Start Highest point End Pass type
(mag) Time Alt. Az. Time Alt. Az. Time Alt. Az.
01 Mar 2.7 20:17:22 10° SW 20:20:10 18° S 20:20:16 18° S visible
02 Mar 2.8 20:07:25 10° SW 20:10:05 17° S 20:10:56 16° S visible
03 Mar 3.0 19:57:32 10° SW 20:00:00 15° S 20:01:38 13° SSE visible
04 Mar 3.2 19:47:45 10° SW 19:49:54 14° SSW 19:52:02 10° SSE visible
05 Mar 3.3 19:38:08 10° SW 19:39:47 12° SSW 19:41:28 10° S visible
06 Mar 3.5 19:28:59 10° SSW 19:29:41 10° SSW 19:30:23 10° S visible
